Location: Bear Valley Community Church - Hurst
(32.8460°N, 97.1828°W)
Time: 11:15:25
(UTC+00:00)

ISS - Pass Details

Date: 17 May 2022
Orbit: 414 x 420 km, 51.6° (Epoch: 03 July)

Event Time Altitude Azimuth Distance (km) Brightness Sun altitude
Rises 02:23:58 0° 253° (WSW) 2,359 0.7 -12.3°
Reaches altitude 10° 02:26:21 10° 268° (W) 1,496 -0.1 -12.8°
Maximum altitude 02:29:06 23° 324° (NW) 933 -1.1 -13.2°
Drops below altitude 10° 02:31:53 10° 19° (NNE) 1,497 -0.8 -13.7°
Enters shadow 02:41:11 -18° 49° (NE) 5,062 1.6 -15.3°
